Piney Island, NC

1:59 AM EDT on March 23, 2017 (GMT -0400)
Piney Island

Weather History for KNBT - October, 2011

Change the Weather History Date:

Wednesday, October 5, 2011

  Actual Average (KMRH) Record (KMRH)
Temperature  
Mean Temperature 68 °F -  
Max Temperature 75 °F 78 °F 95 °F (1986)
Min Temperature 60 °F 59 °F 38 °F (1974)
Cooling Degree Days 2    
Growing Degree Days 18 (Base 50)    
Moisture  
Dew Point 55 °F    
Average Humidity 68    
Maximum Humidity 93    
Minimum Humidity 43    
Precipitation  
Precipitation 0.00 in - - ()
Sea Level Pressure  
Sea Level Pressure 30.20 in    
Wind  
Wind Speed 7 mph (NNW)    
Max Wind Speed 12 mph    
Max Gust Speed -    
Visibility 10 miles    
Events      
Averages and records for this station are not official NWS values.
T = Trace of Precipitation, MM = Missing Value Source: NWS Daily Summary

Daily Weather History Graph

Daily Weather History Graph

Search for Another Location

Airport or City:

Trip Planner

Search our weather history database for the weather conditions in past years. The results will help you decide how hot, cold, wet, or windy it might be!

Date:

Astronomy

Oct. 05, 2011 Rise Set
Actual Time 7:03 AM EDT 6:44 PM EDT
Civil Twilight 6:38 AM EDT 7:09 PM EDT
Nautical Twilight 6:08 AM EDT 7:39 PM EDT
Astronomical Twilight 5:39 AM EDT 8:08 PM EDT
Moon 3:11 PM EDT (10/5) 1:01 AM EDT (10/5)
Length of Visible Light 12h 31m
Length of Day
11h 41m
Waxing Gibbous, 66% of the Moon is Illuminated
Oct 5
Waxing Gibbous
Oct 11
Full
Oct 19
Last Quarter
Oct 26
New
Nov 2
First Quarter

Hourly Weather History & Observations

Time (EDT) Temp. Dew Point Humidity Pressure Visibility Wind Dir Wind Speed Gust Speed Precip Events Conditions
12:56 AM 63.0 °F 55.0 °F 75% 30.19 in 10.0 mi North - - N/A   Clear
1:56 AM 61.0 °F 54.0 °F 78% 30.19 in 10.0 mi NW 6.9 mph - N/A   Clear
2:56 AM 62.1 °F 55.9 °F 80% 30.19 in 10.0 mi NNW 5.8 mph - N/A   Clear
3:56 AM 62.1 °F 55.9 °F 80% 30.19 in 10.0 mi North 5.8 mph - N/A   Clear
4:56 AM 62.1 °F 55.9 °F 80% 30.19 in 10.0 mi NNW 5.8 mph - N/A   Clear
5:56 AM 62.1 °F 57.0 °F 84% 30.21 in 10.0 mi NW 4.6 mph - N/A   Clear
6:56 AM 60.1 °F 55.0 °F 83% 30.22 in 10.0 mi WNW 4.6 mph - N/A   Clear
7:56 AM 62.1 °F 55.9 °F 80% 30.23 in 8.0 mi NW 8.1 mph - N/A   Clear
8:56 AM 64.9 °F 55.9 °F 73% 30.24 in 10.0 mi NNW 11.5 mph - N/A   Clear
9:56 AM 66.9 °F 55.9 °F 68% 30.24 in 10.0 mi NNW 11.5 mph - N/A   Clear
10:56 AM 68.0 °F 55.0 °F 63% 30.23 in 10.0 mi North 10.4 mph - N/A   Clear
11:56 AM 69.1 °F 54.0 °F 58% 30.23 in 10.0 mi NNW 11.5 mph - N/A   Clear
12:56 PM 71.1 °F 53.1 °F 53% 30.22 in 7.0 mi NW 8.1 mph - N/A   Clear
1:56 PM 72.0 °F 53.1 °F 51% 30.19 in 10.0 mi NNW 10.4 mph - N/A   Clear
2:56 PM 73.9 °F 52.0 °F 46% 30.17 in 10.0 mi NNW 11.5 mph - N/A   Clear
3:56 PM 75.0 °F 52.0 °F 44% 30.16 in 10.0 mi NW 9.2 mph - N/A   Clear
4:56 PM 75.9 °F 52.0 °F 43% 30.16 in 10.0 mi Variable 6.9 mph - N/A   Clear
5:56 PM 75.0 °F 52.0 °F 44% 30.17 in 10.0 mi NNW 4.6 mph - N/A   Clear
6:56 PM 73.0 °F 53.1 °F 49% 30.17 in 10.0 mi North 3.5 mph - N/A   Clear
7:56 PM 70.0 °F 57.0 °F 63% 30.18 in 10.0 mi North 3.5 mph - N/A   Clear
8:56 PM 69.1 °F 57.0 °F 65% 30.19 in 10.0 mi Calm Calm - N/A   Clear
9:56 PM 68.0 °F 62.1 °F 81% 30.20 in 10.0 mi Calm Calm - N/A   Clear
10:56 PM 64.9 °F 61.0 °F 87% 30.21 in 10.0 mi Calm Calm - N/A   Clear
11:56 PM 62.1 °F 60.1 °F 93% 30.22 in 3.0 mi Calm Calm - N/A   Clear